Theta_e
308 308 308 308 308 308 308 308 308 309 309 309 309 310 310 311 311 312 315 318 318 320 324 328 329 332 332 332 331 331 332 333 333 332 331 331 331 331 330 329 328 327 325 326 327
307 308 308 308 308 308 308 308 308 308 308 309 309 309 310 310 310 312 317 319 319 320 319 329 332 332 332 331 330 330 332 332 332 331 329 329 329 330 329 330 330 327 325 324 325
304 304 305 306 307 308 308 308 308 308 308 309 309 309 309 309 312 315 319 319 319 318 318 326 330 332 331 331 330 331 332 331 331 331 328 328 328 328 329 329 328 327 326 325 324
308 307 305 304 304 305 306 308 308 308 308 309 309 309 309 309 315 324 318 318 317 317 319 322 326 330 331 332 331 332 331 331 331 330 328 327 327 329 328 328 327 326 325 325 325
309 309 308 308 308 306 305 305 306 307 308 308 308 309 309 312 314 316 316 316 318 316 319 320 324 329 331 330 330 332 332 330 330 329 328 327 328 329 328 327 326 325 324 323 323
309 308 308 308 307 308 309 307 305 305 306 307 308 308 309 313 312 313 315 319 318 318 318 320 322 324 326 328 329 330 331 329 329 329 328 328 328 328 328 327 325 324 324 324 324
306 307 308 309 308 307 306 309 310 307 305 305 306 307 309 311 313 315 316 318 322 324 321 320 321 324 325 328 329 329 330 329 329 329 328 328 328 329 327 327 327 326 325 325 324
305 306 308 308 309 308 307 305 308 309 308 305 302 302 310 311 312 313 315 316 316 317 321 324 324 323 323 325 326 328 328 328 329 329 329 329 329 329 327 328 328 327 326 325 325
304 305 306 307 307 308 307 307 305 307 309 308 303 302 310 313 314 313 315 315 319 321 322 321 320 324 323 324 326 328 329 328 329 330 329 329 329 328 328 328 328 327 327 326 326
297 304 304 304 304 306 307 306 305 307 308 310 309 312 315 317 315 316 316 315 316 317 317 319 322 324 325 325 326 328 328 328 330 330 330 330 330 329 328 328 329 329 328 327 326
299 298 303 303 304 305 306 309 313 317 311 315 316 313 317 318 318 316 316 317 315 316 318 318 325 326 326 327 325 327 328 329 331 331 330 331 332 330 330 329 330 330 328 327 327
303 300 297 303 303 303 305 309 312 313 314 315 316 316 315 316 317 316 317 317 317 317 318 319 324 324 325 327 326 326 328 329 329 329 329 329 330 330 330 330 329 328 328 327 328
305 304 298 301 302 302 306 308 311 313 313 313 315 319 319 317 318 318 316 317 319 318 318 320 320 322 325 327 326 327 329 330 329 329 329 329 331 331 330 329 328 327 326 327 329
304 305 302 298 305 310 312 311 313 311 312 313 315 315 316 320 320 319 318 318 320 319 319 319 320 322 326 326 327 329 328 328 329 329 329 329 332 332 330 330 329 326 327 326 329
305 304 305 297 302 308 311 310 310 310 317 319 317 317 317 319 320 319 318 319 320 320 320 320 321 322 327 327 327 328 328 329 329 329 330 328 329 329 330 331 329 326 326 327 329
304 304 304 300 304 306 308 311 310 314 315 318 322 320 319 318 320 320 319 318 319 320 321 320 321 324 325 327 327 327 328 329 328 328 331 329 330 330 330 328 326 326 327 328 329
304 304 304 303 305 308 309 310 313 314 315 319 321 321 320 320 319 320 320 321 321 321 323 321 321 323 325 327 328 328 331 330 331 329 330 328 329 331 331 327 326 326 328 330 329
303 304 304 305 303 306 307 310 313 311 313 320 321 322 321 321 320 320 321 321 321 321 322 323 322 322 325 327 328 329 331 330 330 331 329 331 330 329 328 327 326 325 328 330 329
303 304 304 304 304 304 307 310 310 311 313 315 317 319 322 322 322 321 322 322 321 323 324 324 323 324 324 326 328 329 330 328 329 328 329 330 332 330 328 326 326 327 331 332 330
303 304 305 305 304 305 308 309 309 310 311 312 314 317 319 323 322 322 323 323 322 322 325 326 327 325 325 327 328 330 328 328 328 330 332 329 330 329 329 327 329 333 332 332 330
303 304 304 305 304 305 308 307 308 308 308 309 311 314 316 317 321 322 322 323 322 322 323 327 330 327 327 328 328 328 329 328 329 328 331 333 331 334 331 331 335 334 333 332 330
303 305 305 305 306 305 308 308 307 307 306 308 310 311 313 316 319 321 324 325 323 324 324 326 328 330 328 327 328 329 329 330 330 333 330 331 330 332 332 330 330 333 333 330 328
302 303 306 306 307 307 308 307 307 308 307 307 309 310 313 315 317 321 324 324 324 324 326 326 328 332 331 330 329 329 329 329 333 334 334 330 330 332 330 328 329 332 332 329 328
303 307 307 306 306 308 308 308 307 308 309 307 308 309 312 314 315 318 322 325 324 325 325 328 328 330 333 331 331 332 329 328 329 333 330 330 330 332 330 329 329 330 331 330 328
304 307 306 308 307 306 306 308 307 307 308 308 309 309 310 313 315 318 320 319 323 326 329 331 328 330 329 328 329 329 328 328 329 330 330 330 329 330 332 330 330 331 332 330 329
303 305 305 304 305 305 304 308 307 306 307 309 310 310 311 313 314 316 317 319 321 323 328 332 329 328 327 326 328 328 328 328 327 327 328 329 330 331 330 330 329 332 332 331 329
303 304 304 304 306 307 307 306 307 308 307 307 309 310 310 311 311 312 313 314 317 320 325 332 331 331 329 328 328 331 330 329 328 328 329 329 330 330 330 330 329 333 332 331 330
Wind_Speed
24 23 23 24 25 24 24 23 22 21 21 21 20 19 20 22 20 20 25 20 16 19 15 15 19 19 20 23 22 21 14 16 21 22 14 18 12 11 14 4 16 7 7 5 8
25 25 25 25 26 26 25 25 24 23 22 22 21 22 22 23 25 28 27 22 20 18 25 21 23 22 26 25 24 20 15 24 21 21 16 20 16 19 19 14 15 14 11 12 12
25 26 26 27 27 28 28 27 26 24 23 22 22 22 22 21 22 17 15 19 22 27 24 23 25 25 28 27 29 26 20 22 26 25 23 22 20 20 15 11 10 6 2 16 12
24 25 25 25 26 27 29 29 28 27 25 23 23 22 20 14 7 5 5 7 12 20 24 27 30 32 28 24 30 24 32 30 30 25 24 19 26 20 13 14 14 1 2 12 16
24 25 24 24 25 26 27 27 28 28 27 25 23 22 20 14 24 18 24 22 9 21 27 30 35 35 26 27 29 26 26 32 25 19 29 29 23 19 16 13 9 5 10 12 11
24 25 25 25 24 26 27 26 25 25 25 24 24 23 18 21 29 25 24 23 17 17 27 28 32 36 32 29 28 28 31 28 22 31 30 24 19 17 25 11 5 10 11 15 13
25 25 24 24 25 23 24 26 25 23 22 22 22 22 23 36 17 11 16 25 18 18 20 23 28 32 30 27 33 30 25 22 24 25 23 25 19 17 22 14 18 14 15 15 15
24 22 22 22 24 25 22 24 25 23 22 19 18 17 19 26 27 33 22 23 24 28 25 19 20 27 32 30 29 23 26 22 23 23 29 26 18 14 20 15 22 17 17 20 18
21 21 23 24 26 27 26 24 22 19 21 18 18 17 21 14 25 35 30 33 23 20 17 22 25 26 23 20 20 20 18 25 24 22 24 15 17 16 19 20 17 18 17 18 17
20 20 20 22 25 26 29 25 13 17 18 12 16 12 23 26 24 25 28 31 33 27 27 24 25 19 18 16 20 20 23 22 23 23 18 15 16 16 21 25 14 26 22 20 17
19 19 20 21 23 22 24 16 8 7 20 23 18 29 20 10 15 23 22 26 31 30 21 27 15 22 25 26 26 24 24 24 22 14 10 15 20 15 14 16 23 22 18 16 17
21 20 19 19 22 21 19 12 16 13 15 29 41 37 32 23 17 22 20 25 30 27 24 22 26 26 27 26 27 28 26 24 21 18 14 15 15 13 14 19 27 24 16 15 19
22 21 17 18 21 20 18 25 21 18 13 28 38 46 42 35 35 27 31 30 22 26 28 28 27 27 28 26 26 25 25 20 23 17 16 16 15 14 21 22 21 17 7 4 20
21 20 17 15 13 11 18 13 12 9 7 15 25 34 46 38 40 40 31 30 23 27 30 31 27 28 29 28 26 25 25 25 19 15 12 14 14 13 15 16 11 8 13 15 21
21 19 16 14 13 12 12 6 2 5 7 8 35 15 28 44 11 43 46 37 26 26 21 31 29 29 29 28 28 23 24 22 17 15 16 15 12 14 15 17 7 1 7 21 25
20 19 15 16 17 17 13 12 4 7 14 9 10 25 23 35 40 8 49 44 35 26 28 27 29 29 30 26 26 25 22 17 12 12 13 16 15 14 15 2 4 2 7 18 21
20 18 18 15 18 8 6 9 7 13 11 12 20 24 24 25 32 32 30 32 27 26 28 27 30 30 29 28 23 22 17 11 12 12 12 17 17 16 12 7 1 2 6 18 20
19 18 19 18 16 13 10 6 15 20 35 10 20 23 25 23 28 34 25 27 32 31 15 22 23 32 26 31 26 23 16 13 15 12 16 15 13 4 2 6 4 2 6 14 18
15 17 19 19 16 16 9 13 22 28 18 28 31 29 22 24 22 31 34 29 31 32 24 22 28 24 32 24 25 21 22 18 18 16 13 7 13 10 12 9 9 10 10 15 15
15 13 20 17 18 17 7 18 23 30 36 34 28 18 21 20 27 30 30 31 31 33 25 23 17 28 29 25 24 22 19 16 12 17 15 13 14 7 12 8 11 11 10 14 18
11 6 21 19 20 12 7 18 23 33 39 29 29 27 27 25 24 28 32 28 31 33 31 25 16 19 23 27 22 18 20 18 14 14 12 11 10 15 11 9 11 11 16 17 22
7 3 7 24 8 3 6 22 24 25 33 28 23 21 27 25 22 16 23 31 24 30 34 31 10 16 25 25 26 23 23 18 10 17 12 11 3 10 9 9 6 19 19 20 23
3 6 4 22 5 9 16 22 26 24 25 24 21 21 24 24 12 14 20 24 40 29 28 26 20 14 20 21 24 23 24 21 15 9 15 12 11 11 12 9 11 13 24 22 23
5 3 1 8 4 10 17 21 20 22 25 21 20 22 21 21 21 16 22 15 22 29 36 21 19 21 15 17 22 25 24 22 19 13 14 15 17 13 12 9 9 13 27 25 23
5 4 4 3 7 11 14 19 22 21 22 16 21 19 21 21 22 19 16 18 24 22 23 21 26 22 25 24 27 26 27 25 24 20 19 17 17 11 12 8 11 16 22 25 24
5 4 9 13 11 12 11 12 20 21 21 19 17 18 19 21 22 18 21 19 13 18 11 19 22 24 24 28 25 28 28 26 26 25 22 21 18 14 11 24 18 21 21 19 25
8 7 8 9 8 8 10 11 12 14 16 16 17 18 16 19 27 23 27 27 28 24 20 12 19 20 23 23 25 24 27 26 21 21 22 21 15 13 12 11 10 22 20 19 23
Wind_Direction
288 289 288 287 286 286 287 287 289 289 291 289 291 292 293 292 287 286 268 257 243 232 224 225 213 220 225 233 239 244 257 262 272 284 309 309 322 324 298 233 279 247 196 145 162
285 284 284 284 284 283 282 283 285 287 288 290 293 294 296 299 299 284 270 249 226 233 235 214 215 221 230 235 242 243 248 259 274 287 310 316 311 307 303 244 237 209 183 199 177
283 283 282 281 281 282 282 281 281 282 282 285 287 287 291 302 310 279 254 251 246 241 239 223 229 221 231 239 238 240 252 258 273 290 300 299 297 285 293 299 293 23 309 172 187
279 280 278 278 277 276 277 278 279 280 280 280 281 280 282 287 261 245 270 284 248 229 228 225 230 232 228 236 242 256 253 256 257 278 297 277 280 280 288 288 275 346 291 185 205
295 284 281 279 274 273 273 275 277 278 280 281 282 283 281 248 241 252 293 291 271 223 216 225 232 227 236 241 245 252 261 262 270 275 265 269 265 279 278 282 294 296 242 233 244
295 297 295 291 284 273 271 270 271 273 275 278 279 279 279 254 259 260 258 264 254 233 224 220 232 239 247 246 253 256 260 267 270 258 264 268 264 256 269 254 236 264 253 249 234
292 289 292 296 296 288 279 270 268 270 269 269 270 272 263 245 239 246 250 236 234 219 220 226 231 247 254 250 259 263 266 270 255 255 260 269 262 248 269 239 263 253 241 244 261
299 295 289 293 296 296 286 275 268 267 266 267 267 262 257 261 266 237 219 244 238 232 235 237 240 246 256 266 261 257 261 259 259 253 252 239 251 265 261 225 256 244 252 251 236
310 301 288 288 291 292 295 282 270 266 261 260 255 238 264 271 237 244 230 235 231 223 230 239 237 246 237 247 258 249 250 254 258 250 255 225 238 242 268 281 247 241 258 260 233
307 305 309 294 288 289 293 295 269 260 255 252 241 225 251 246 241 235 231 227 229 235 238 242 228 232 236 223 233 237 240 237 251 261 253 229 244 239 242 251 260 262 249 252 230
316 298 302 307 300 290 295 322 262 232 217 211 207 209 266 276 242 229 222 222 224 233 226 220 225 227 224 225 236 243 248 249 252 239 267 233 240 240 265 283 287 290 285 258 203
315 313 301 299 307 295 281 259 238 321 286 243 243 242 242 250 264 226 209 208 209 219 217 216 224 226 231 230 230 241 250 260 272 283 291 288 271 280 290 270 266 265 272 276 166
308 309 304 302 311 296 266 254 265 295 275 263 240 238 233 234 241 229 212 212 212 211 215 222 222 222 234 227 230 232 244 254 262 276 276 282 270 265 263 265 263 255 232 241 158
306 299 304 297 309 313 284 278 252 261 275 256 218 244 227 223 241 227 220 211 221 216 216 228 226 226 223 233 221 232 232 239 250 270 270 283 292 287 297 277 259 258 212 184 164
297 293 289 270 275 291 341 41 265 206 264 238 215 211 201 196 173 215 213 211 214 212 213 226 222 226 225 219 231 234 236 241 237 245 257 263 270 277 283 284 239 131 238 179 159
294 288 281 264 274 276 285 307 264 225 235 243 221 185 191 200 216 223 198 216 216 223 228 230 234 226 230 231 218 233 236 244 253 261 254 249 254 268 268 26 83 336 110 138 158
287 280 267 258 251 278 260 271 211 228 238 254 189 175 198 194 210 226 188 199 212 209 224 227 228 232 230 228 224 217 226 224 225 236 253 253 249 250 265 306 115 10 100 144 156
284 267 261 255 246 251 255 234 229 229 237 265 224 187 201 217 202 209 191 201 213 206 208 219 222 221 218 228 219 209 204 228 224 226 246 269 240 258 225 150 122 154 78 129 155
284 271 255 240 233 235 207 221 229 245 269 241 282 285 200 218 215 201 218 203 205 207 213 206 229 213 227 209 227 199 212 215 250 262 274 232 230 266 159 174 201 177 140 137 156
286 273 256 237 211 219 216 237 247 250 267 290 292 318 314 228 224 194 202 222 207 206 217 233 217 226 203 216 212 221 196 208 227 242 264 280 277 264 145 196 151 126 143 147 157
273 269 268 216 203 204 221 221 241 259 272 287 288 301 307 301 296 215 210 219 205 204 211 227 248 213 216 205 198 202 228 199 224 224 230 248 268 124 151 163 133 153 145 158 161
234 244 261 178 181 214 240 240 270 276 280 288 289 287 284 299 305 294 232 213 219 204 200 212 227 242 216 202 200 207 215 203 214 220 248 254 289 90 105 134 151 124 145 165 164
244 251 183 174 206 233 247 250 259 268 272 273 276 270 284 303 306 287 266 245 221 191 207 201 226 237 236 210 186 211 217 217 206 221 217 239 242 165 165 179 158 158 146 165 168
300 311 118 231 263 273 260 267 280 285 277 261 262 272 277 275 280 282 293 290 229 218 199 187 220 222 228 211 179 194 216 215 214 209 227 235 251 136 151 172 181 165 151 166 175
246 244 244 240 250 255 300 281 280 280 282 285 249 257 261 278 281 268 335 340 320 286 189 187 212 225 229 237 195 195 205 221 215 215 221 226 245 203 184 186 204 169 156 165 177
283 326 331 294 288 274 250 275 274 274 286 290 286 248 247 262 264 304 316 321 287 340 255 188 210 215 226 229 244 203 202 213 225 215 215 232 236 234 224 190 193 163 164 175 177
272 289 313 291 289 296 277 273 297 300 287 264 260 285 288 271 279 280 303 288 289 290 293 232 206 201 225 222 235 222 200 202 219 228 210 218 224 242 240 210 203 163 169 175 182